Time,TemperatureF,DewpointF,PressureIn,WindDirection,WindDirectionDegrees,WindSpeedMPH,WindSpeedGustMPH,Humidity,HourlyPrecipIn,Conditions,Clouds,dailyrainin,SoftwareType,DateUTC
2013-10-08 00:03:00,63.7,16.7,29.56,WSW,245,0.0,0.0,16,0.00,,,0.00,WeatherTracker,2013-10-08 07:03:00,
2013-10-08 00:08:00,63.1,16.2,29.56,WSW,245,0.0,0.0,16,0.00,,,0.00,WeatherTracker,2013-10-08 07:08:00,
2013-10-08 00:15:00,62.6,15.8,29.56,WSW,245,0.0,0.0,16,0.00,,,0.00,WeatherTracker,2013-10-08 07:15:00,
2013-10-08 00:20:00,62.2,15.5,29.56,WSW,245,0.0,0.0,16,0.00,,,0.00,WeatherTracker,2013-10-08 07:20:00,
2013-10-08 00:25:00,61.9,15.2,29.56,WSW,245,0.0,0.0,16,0.00,,,0.00,WeatherTracker,2013-10-08 07:25:00,
2013-10-08 00:30:00,61.9,15.2,29.56,WSW,245,0.0,0.0,16,0.00,,,0.00,WeatherTracker,2013-10-08 07:30:00,
2013-10-08 00:35:00,62.6,15.8,29.56,WSW,245,0.0,0.0,16,0.00,,,0.00,WeatherTracker,2013-10-08 07:35:00,
2013-10-08 00:40:00,62.6,15.8,29.56,WSW,245,0.0,0.0,16,0.00,,,0.00,WeatherTracker,2013-10-08 07:40:00,
2013-10-08 00:46:00,62.6,15.8,29.56,WSW,245,0.0,0.0,16,0.00,,,0.00,WeatherTracker,2013-10-08 07:46:00,
2013-10-08 00:51:00,62.6,15.8,29.56,WSW,245,0.0,0.0,16,0.00,,,0.00,WeatherTracker,2013-10-08 07:51:00,
2013-10-08 00:56:00,62.6,15.8,29.56,WSW,245,0.0,0.0,16,0.00,,,0.00,WeatherTracker,2013-10-08 07:56:00,
2013-10-08 01:01:00,62.4,15.6,29.56,WSW,245,0.0,0.0,16,0.00,,,0.00,WeatherTracker,2013-10-08 08:01:00,
2013-10-08 01:06:00,62.2,15.5,29.56,WSW,245,0.0,0.0,16,0.00,,,0.00,WeatherTracker,2013-10-08 08:06:00,
2013-10-08 01:11:00,61.9,15.2,29.56,WSW,245,0.0,0.0,16,0.00,,,0.00,WeatherTracker,2013-10-08 08:11:00,
2013-10-08 01:16:00,61.9,15.2,29.56,WSW,245,0.0,0.0,16,0.00,,,0.00,WeatherTracker,2013-10-08 08:16:00,
2013-10-08 01:21:00,61.9,15.2,29.56,WSW,245,0.0,0.0,16,0.00,,,0.00,WeatherTracker,2013-10-08 08:21:00,
2013-10-08 01:26:00,61.3,14.8,29.56,WSW,245,0.0,0.0,16,0.00,,,0.00,WeatherTracker,2013-10-08 08:26:00,
2013-10-08 01:31:00,61.0,14.5,29.56,WSW,245,0.0,0.0,16,0.00,,,0.00,WeatherTracker,2013-10-08 08:31:00,
2013-10-08 01:36:00,61.0,14.5,29.56,WSW,245,0.0,0.0,16,0.00,,,0.00,WeatherTracker,2013-10-08 08:36:00,
2013-10-08 01:41:00,61.0,14.5,29.56,WSW,245,0.0,0.0,16,0.00,,,0.00,WeatherTracker,2013-10-08 08:41:00,
2013-10-08 01:46:00,60.8,14.3,29.56,WSW,245,0.0,0.0,16,0.00,,,0.00,WeatherTracker,2013-10-08 08:46:00,
2013-10-08 01:51:00,60.6,15.6,29.56,WSW,245,0.0,0.0,17,0.00,,,0.00,WeatherTracker,2013-10-08 08:51:00,
2013-10-08 01:56:00,60.4,15.4,29.56,WSW,245,0.0,0.0,17,0.00,,,0.00,WeatherTracker,2013-10-08 08:56:00,
2013-10-08 02:01:00,60.6,15.6,29.56,WSW,245,0.0,0.0,17,0.00,,,0.00,WeatherTracker,2013-10-08 09:01:00,
2013-10-08 02:06:00,60.8,14.3,29.56,WSW,245,0.0,0.0,16,0.00,,,0.00,WeatherTracker,2013-10-08 09:06:00,
2013-10-08 02:11:00,61.2,14.6,29.56,WSW,245,0.0,0.0,16,0.00,,,0.00,WeatherTracker,2013-10-08 09:11:00,
2013-10-08 02:16:00,61.3,14.8,29.56,WSW,245,0.0,0.0,16,0.00,,,0.00,WeatherTracker,2013-10-08 09:16:00,
2013-10-08 02:21:00,61.7,15.1,29.56,WSW,245,0.0,0.0,16,0.00,,,0.00,WeatherTracker,2013-10-08 09:21:00,
2013-10-08 02:26:00,61.5,14.9,29.56,WSW,245,0.0,0.0,16,0.00,,,0.00,WeatherTracker,2013-10-08 09:26:00,
2013-10-08 02:31:00,61.7,15.1,29.56,WSW,245,0.0,0.0,16,0.00,,,0.00,WeatherTracker,2013-10-08 09:31:00,
2013-10-08 02:36:00,61.7,15.1,29.56,WSW,245,0.0,0.0,16,0.00,,,0.00,WeatherTracker,2013-10-08 09:36:00,
2013-10-08 02:41:00,62.1,15.4,29.56,WSW,245,0.0,0.0,16,0.00,,,0.00,WeatherTracker,2013-10-08 09:41:00,
2013-10-08 02:46:00,62.2,15.5,29.56,WSW,245,0.0,0.0,16,0.00,,,0.00,WeatherTracker,2013-10-08 09:46:00,
2013-10-08 02:51:00,62.6,15.8,29.56,WSW,245,0.0,0.0,16,0.00,,,0.00,WeatherTracker,2013-10-08 09:51:00,
2013-10-08 02:56:00,62.6,15.8,29.56,WSW,245,0.0,0.0,16,0.00,,,0.00,WeatherTracker,2013-10-08 09:56:00,
2013-10-08 03:01:00,62.8,15.9,29.56,WSW,245,0.0,0.0,16,0.00,,,0.00,WeatherTracker,2013-10-08 10:01:00,
2013-10-08 03:06:00,62.6,15.8,29.56,WSW,245,0.0,0.0,16,0.00,,,0.00,WeatherTracker,2013-10-08 10:06:00,
2013-10-08 03:11:00,62.6,15.8,29.56,WSW,245,0.0,0.0,16,0.00,,,0.00,WeatherTracker,2013-10-08 10:11:00,
2013-10-08 03:16:00,62.8,15.9,29.56,WSW,245,0.0,0.0,16,0.00,,,0.00,WeatherTracker,2013-10-08 10:16:00,
2013-10-08 03:21:00,62.8,15.9,29.56,WSW,245,0.0,0.0,16,0.00,,,0.00,WeatherTracker,2013-10-08 10:21:00,
2013-10-08 03:26:00,62.8,15.9,29.56,WSW,245,0.0,0.0,16,0.00,,,0.00,WeatherTracker,2013-10-08 10:26:00,
2013-10-08 03:31:00,62.8,15.9,29.56,WSW,245,0.0,0.0,16,0.00,,,0.00,WeatherTracker,2013-10-08 10:31:00,
2013-10-08 03:36:00,62.8,15.9,29.56,WSW,245,0.0,0.0,16,0.00,,,0.00,WeatherTracker,2013-10-08 10:36:00,
2013-10-08 03:41:00,63.0,16.1,29.56,WSW,245,0.0,0.0,16,0.00,,,0.00,WeatherTracker,2013-10-08 10:41:00,
2013-10-08 03:46:00,62.8,15.9,29.56,WSW,245,0.0,0.0,16,0.00,,,0.00,WeatherTracker,2013-10-08 10:46:00,
2013-10-08 03:51:00,62.6,15.8,29.56,West,268,0.0,0.0,16,0.00,,,0.00,WeatherTracker,2013-10-08 10:51:00,
2013-10-08 03:56:00,62.6,15.8,29.56,WNW,289,2.0,3.0,16,0.00,,,0.00,WeatherTracker,2013-10-08 10:56:00,
2013-10-08 04:01:00,62.8,15.9,29.56,WNW,290,0.0,2.0,16,0.00,,,0.00,WeatherTracker,2013-10-08 11:01:00,
2013-10-08 04:06:00,63.0,16.1,29.56,WNW,290,0.0,0.0,16,0.00,,,0.00,WeatherTracker,2013-10-08 11:06:00,
2013-10-08 04:11:00,62.8,15.9,29.56,WSW,240,0.0,3.0,16,0.00,,,0.00,WeatherTracker,2013-10-08 11:11:00,
2013-10-08 04:16:00,62.6,15.8,29.56,WSW,240,0.0,0.0,16,0.00,,,0.00,WeatherTracker,2013-10-08 11:16:00,
2013-10-08 04:21:00,62.6,15.8,29.56,WSW,240,0.0,0.0,16,0.00,,,0.00,WeatherTracker,2013-10-08 11:21:00,
2013-10-08 04:26:00,62.6,15.8,29.56,West,264,2.0,2.0,16,0.00,,,0.00,WeatherTracker,2013-10-08 11:26:00,
2013-10-08 04:31:00,62.6,15.8,29.56,WSW,251,0.0,0.0,16,0.00,,,0.00,WeatherTracker,2013-10-08 11:31:00,
2013-10-08 04:36:00,62.6,15.8,29.56,WNW,301,3.0,3.0,16,0.00,,,0.00,WeatherTracker,2013-10-08 11:36:00,
2013-10-08 04:41:00,62.8,15.9,29.56,West,267,0.0,2.0,16,0.00,,,0.00,WeatherTracker,2013-10-08 11:41:00,
2013-10-08 04:46:00,62.4,15.6,29.56,West,267,0.0,0.0,16,0.00,,,0.00,WeatherTracker,2013-10-08 11:46:00,
2013-10-08 04:51:00,62.2,15.5,29.56,West,267,0.0,0.0,16,0.00,,,0.00,WeatherTracker,2013-10-08 11:51:00,
2013-10-08 04:56:00,62.2,15.5,29.56,West,267,0.0,0.0,16,0.00,,,0.00,WeatherTracker,2013-10-08 11:56:00,
2013-10-08 05:01:00,62.1,15.4,29.56,West,267,3.0,3.0,16,0.00,,,0.00,WeatherTracker,2013-10-08 12:01:00,
2013-10-08 05:06:00,62.1,15.4,29.56,West,267,0.0,0.0,16,0.00,,,0.00,WeatherTracker,2013-10-08 12:06:00,
2013-10-08 05:11:00,62.1,15.4,29.56,West,267,0.0,0.0,16,0.00,,,0.00,WeatherTracker,2013-10-08 12:11:00,
2013-10-08 05:16:00,62.1,15.4,29.56,West,267,0.0,0.0,16,0.00,,,0.00,WeatherTracker,2013-10-08 12:16:00,
2013-10-08 05:21:00,61.9,15.2,29.56,West,267,0.0,0.0,16,0.00,,,0.00,WeatherTracker,2013-10-08 12:21:00,
2013-10-08 05:26:00,62.1,15.4,29.56,West,267,0.0,0.0,16,0.00,,,0.00,WeatherTracker,2013-10-08 12:26:00,
2013-10-08 05:31:00,62.1,15.4,29.56,NW,304,2.0,3.0,16,0.00,,,0.00,WeatherTracker,2013-10-08 12:31:00,
2013-10-08 05:36:00,62.2,15.5,29.56,NW,304,2.0,3.0,16,0.00,,,0.00,WeatherTracker,2013-10-08 12:36:00,
2013-10-08 05:41:00,62.2,15.5,29.56,West,263,2.0,4.0,16,0.00,,,0.00,WeatherTracker,2013-10-08 12:41:00,
2013-10-08 05:46:00,62.2,15.5,29.56,West,262,2.0,3.0,16,0.00,,,0.00,WeatherTracker,2013-10-08 12:46:00,
2013-10-08 05:51:00,62.2,15.5,29.56,WNW,302,3.0,3.0,16,0.00,,,0.00,WeatherTracker,2013-10-08 12:51:00,
2013-10-08 05:56:00,62.6,15.8,29.56,WNW,302,0.0,0.0,16,0.00,,,0.00,WeatherTracker,2013-10-08 12:56:00,
2013-10-08 06:01:00,62.4,15.6,29.56,WNW,302,0.0,3.0,16,0.00,,,0.00,WeatherTracker,2013-10-08 13:01:00,
2013-10-08 06:06:00,62.2,15.5,29.56,WNW,302,0.0,0.0,16,0.00,,,0.00,WeatherTracker,2013-10-08 13:06:00,
2013-10-08 06:11:00,62.2,15.5,29.56,WNW,302,0.0,0.0,16,0.00,,,0.00,WeatherTracker,2013-10-08 13:11:00,
2013-10-08 06:16:00,62.1,15.4,29.56,WNW,302,0.0,0.0,16,0.00,,,0.00,WeatherTracker,2013-10-08 13:16:00,
2013-10-08 06:21:00,62.1,15.4,29.56,WNW,302,0.0,0.0,16,0.00,,,0.00,WeatherTracker,2013-10-08 13:21:00,
2013-10-08 06:26:00,61.9,15.2,29.56,WNW,302,3.0,3.0,16,0.00,,,0.00,WeatherTracker,2013-10-08 13:26:00,
2013-10-08 06:31:00,61.9,15.2,29.56,WNW,302,2.0,3.0,16,0.00,,,0.00,WeatherTracker,2013-10-08 13:31:00,
2013-10-08 06:36:00,61.9,15.2,29.56,WNW,301,2.0,3.0,16,0.00,,,0.00,WeatherTracker,2013-10-08 13:36:00,
2013-10-08 06:41:00,61.9,15.2,29.56,WNW,301,2.0,2.0,16,0.00,,,0.00,WeatherTracker,2013-10-08 13:41:00,
2013-10-08 06:46:00,61.7,15.1,29.56,NW,307,2.0,3.0,16,0.00,,,0.00,WeatherTracker,2013-10-08 13:46:00,
2013-10-08 06:51:00,61.7,15.1,29.56,NW,307,0.0,0.0,16,0.00,,,0.00,WeatherTracker,2013-10-08 13:51:00,
2013-10-08 06:56:00,61.7,15.1,29.56,NW,307,0.0,0.0,16,0.00,,,0.00,WeatherTracker,2013-10-08 13:56:00,
2013-10-08 07:01:00,61.5,14.9,29.56,NW,307,0.0,0.0,16,0.00,,,0.00,WeatherTracker,2013-10-08 14:01:00,
2013-10-08 07:06:00,61.3,14.8,29.56,NW,307,0.0,0.0,16,0.00,,,0.00,WeatherTracker,2013-10-08 14:06:00,
2013-10-08 07:11:00,61.2,14.6,29.56,NW,307,0.0,0.0,16,0.00,,,0.00,WeatherTracker,2013-10-08 14:11:00,
2013-10-08 07:16:00,61.0,14.5,29.56,NW,307,0.0,0.0,16,0.00,,,0.00,WeatherTracker,2013-10-08 14:16:00,
2013-10-08 07:21:00,61.0,14.5,29.56,NW,307,0.0,0.0,16,0.00,,,0.00,WeatherTracker,2013-10-08 14:21:00,
2013-10-08 07:26:00,61.0,14.5,29.56,NW,307,2.0,0.0,16,0.00,,,0.00,WeatherTracker,2013-10-08 14:26:00,
2013-10-08 07:31:00,61.2,14.6,29.56,NW,307,0.0,0.0,16,0.00,,,0.00,WeatherTracker,2013-10-08 14:31:00,
2013-10-08 07:36:00,61.2,14.6,29.56,West,270,2.0,2.0,16,0.00,,,0.00,WeatherTracker,2013-10-08 14:36:00,
2013-10-08 07:41:00,61.3,14.8,29.56,WNW,301,2.0,3.0,16,0.00,,,0.00,WeatherTracker,2013-10-08 14:41:00,
2013-10-08 07:46:00,61.7,15.1,29.56,WNW,301,0.0,0.0,16,0.00,,,0.00,WeatherTracker,2013-10-08 14:46:00,
2013-10-08 07:51:00,61.7,15.1,29.56,WNW,301,3.0,3.0,16,0.00,,,0.00,WeatherTracker,2013-10-08 14:51:00,
2013-10-08 07:56:00,61.9,15.2,29.56,WNW,301,3.0,3.0,16,0.00,,,0.00,WeatherTracker,2013-10-08 14:56:00,
2013-10-08 08:01:00,61.9,15.2,29.56,WNW,301,0.0,0.0,16,0.00,,,0.00,WeatherTracker,2013-10-08 15:01:00,
2013-10-08 08:06:00,62.1,15.4,29.56,WNW,301,0.0,0.0,16,0.00,,,0.00,WeatherTracker,2013-10-08 15:06:00,
2013-10-08 08:11:00,62.2,15.5,29.56,WNW,301,0.0,0.0,16,0.00,,,0.00,WeatherTracker,2013-10-08 15:11:00,
2013-10-08 08:16:00,62.2,15.5,29.56,WNW,301,0.0,0.0,16,0.00,,,0.00,WeatherTracker,2013-10-08 15:16:00,
2013-10-08 08:21:00,62.2,15.5,29.56,WNW,301,0.0,0.0,16,0.00,,,0.00,WeatherTracker,2013-10-08 15:21:00,
2013-10-08 08:26:00,62.4,15.6,29.56,NW,315,0.0,0.0,16,0.00,,,0.00,WeatherTracker,2013-10-08 15:26:00,
2013-10-08 08:31:00,62.6,15.8,29.56,NW,315,0.0,0.0,16,0.00,,,0.00,WeatherTracker,2013-10-08 15:31:00,
2013-10-08 08:36:00,62.6,15.8,29.56,NW,315,0.0,0.0,16,0.00,,,0.00,WeatherTracker,2013-10-08 15:36:00,
2013-10-08 08:41:00,62.8,15.9,29.56,NW,315,0.0,0.0,16,0.00,,,0.00,WeatherTracker,2013-10-08 15:41:00,
2013-10-08 08:46:00,62.8,15.9,29.56,NW,315,3.0,3.0,16,0.00,,,0.00,WeatherTracker,2013-10-08 15:46:00,
2013-10-08 08:51:00,63.0,16.1,29.56,NNW,331,0.0,0.0,16,0.00,,,0.00,WeatherTracker,2013-10-08 15:51:00,
2013-10-08 08:56:00,63.0,16.1,29.56,NNW,331,0.0,0.0,16,0.00,,,0.00,WeatherTracker,2013-10-08 15:56:00,
2013-10-08 09:01:00,63.0,16.1,29.56,NNW,331,0.0,3.0,16,0.00,,,0.00,WeatherTracker,2013-10-08 16:01:00,
2013-10-08 09:06:00,63.1,16.2,29.56,NNW,331,0.0,0.0,16,0.00,,,0.00,WeatherTracker,2013-10-08 16:06:00,
2013-10-08 09:11:00,63.5,16.5,29.56,NNW,331,0.0,0.0,16,0.00,,,0.00,WeatherTracker,2013-10-08 16:11:00,
2013-10-08 09:16:00,63.5,16.5,29.56,NNW,331,2.0,2.0,16,0.00,,,0.00,WeatherTracker,2013-10-08 16:16:00,
2013-10-08 09:21:00,63.5,16.5,29.56,NNW,331,0.0,0.0,16,0.00,,,0.00,WeatherTracker,2013-10-08 16:21:00,
2013-10-08 09:26:00,63.5,16.5,29.56,NNW,331,0.0,3.0,16,0.00,,,0.00,WeatherTracker,2013-10-08 16:26:00,
2013-10-08 09:31:00,63.5,16.5,29.56,NNW,331,0.0,0.0,16,0.00,,,0.00,WeatherTracker,2013-10-08 16:31:00,
2013-10-08 09:36:00,63.7,16.7,29.56,NNW,331,0.0,0.0,16,0.00,,,0.00,WeatherTracker,2013-10-08 16:36:00,
2013-10-08 09:41:00,63.7,16.7,29.56,NNW,331,0.0,0.0,16,0.00,,,0.00,WeatherTracker,2013-10-08 16:41:00,
2013-10-08 09:46:00,63.9,16.8,29.56,NNW,331,2.0,3.0,16,0.00,,,0.00,WeatherTracker,2013-10-08 16:46:00,
2013-10-08 09:51:00,63.7,16.7,29.56,NNW,331,0.0,0.0,16,0.00,,,0.00,WeatherTracker,2013-10-08 16:51:00,
2013-10-08 09:56:00,63.7,16.7,29.56,NNW,331,0.0,0.0,16,0.00,,,0.00,WeatherTracker,2013-10-08 16:56:00,
2013-10-08 10:01:00,63.9,16.8,29.56,NNW,331,0.0,0.0,16,0.00,,,0.00,WeatherTracker,2013-10-08 17:01:00,
2013-10-08 10:06:00,64.2,17.1,29.56,NNW,331,0.0,0.0,16,0.00,,,0.00,WeatherTracker,2013-10-08 17:06:00,
2013-10-08 10:11:00,64.4,15.8,29.56,NNW,331,0.0,0.0,15,0.00,,,0.00,WeatherTracker,2013-10-08 17:11:00,
2013-10-08 10:16:00,64.6,15.9,29.56,NNW,331,2.0,2.0,15,0.00,,,0.00,WeatherTracker,2013-10-08 17:16:00,
2013-10-08 10:21:00,64.9,16.2,29.56,NNW,331,0.0,0.0,15,0.00,,,0.00,WeatherTracker,2013-10-08 17:21:00,
2013-10-08 10:26:00,65.1,16.3,29.56,NNE,22,0.0,0.0,15,0.00,,,0.00,WeatherTracker,2013-10-08 17:26:00,
2013-10-08 10:31:00,65.3,16.5,29.56,North,357,0.0,0.0,15,0.00,,,0.00,WeatherTracker,2013-10-08 17:31:00,
2013-10-08 10:36:00,65.7,16.8,29.56,North,357,0.0,0.0,15,0.00,,,0.00,WeatherTracker,2013-10-08 17:36:00,
2013-10-08 10:41:00,65.7,16.8,29.56,North,357,0.0,0.0,15,0.00,,,0.00,WeatherTracker,2013-10-08 17:41:00,
2013-10-08 10:46:00,65.8,16.9,29.56,North,357,0.0,0.0,15,0.00,,,0.00,WeatherTracker,2013-10-08 17:46:00,
2013-10-08 10:51:00,66.2,17.2,29.56,North,357,0.0,0.0,15,0.00,,,0.00,WeatherTracker,2013-10-08 17:51:00,
2013-10-08 10:56:00,66.6,17.5,29.56,North,357,0.0,0.0,15,0.00,,,0.00,WeatherTracker,2013-10-08 17:56:00,
2013-10-08 11:01:00,66.6,17.5,29.56,North,357,0.0,0.0,15,0.00,,,0.00,WeatherTracker,2013-10-08 18:01:00,
2013-10-08 11:06:00,66.6,17.5,29.56,North,357,0.0,0.0,15,0.00,,,0.00,WeatherTracker,2013-10-08 18:06:00,
2013-10-08 11:11:00,66.7,17.6,29.56,ENE,77,0.0,0.0,15,0.00,,,0.00,WeatherTracker,2013-10-08 18:11:00,
2013-10-08 11:16:00,66.9,17.8,29.56,NNE,23,0.0,0.0,15,0.00,,,0.00,WeatherTracker,2013-10-08 18:16:00,
2013-10-08 11:21:00,66.9,17.8,29.56,NNE,23,0.0,0.0,15,0.00,,,0.00,WeatherTracker,2013-10-08 18:21:00,
2013-10-08 11:26:00,66.7,17.6,29.56,NNE,23,0.0,0.0,15,0.00,,,0.00,WeatherTracker,2013-10-08 18:26:00,
2013-10-08 11:31:00,66.9,17.8,29.56,NNE,23,0.0,0.0,15,0.00,,,0.00,WeatherTracker,2013-10-08 18:31:00,
2013-10-08 11:36:00,67.1,17.9,29.56,NNE,23,0.0,0.0,15,0.00,,,0.00,WeatherTracker,2013-10-08 18:36:00,
2013-10-08 11:41:00,67.1,17.9,29.56,NNE,31,0.0,0.0,15,0.00,,,0.00,WeatherTracker,2013-10-08 18:41:00,
2013-10-08 11:46:00,67.3,18.1,29.56,NNE,31,0.0,0.0,15,0.00,,,0.00,WeatherTracker,2013-10-08 18:46:00,
2013-10-08 11:51:00,67.3,18.1,29.56,NNE,31,0.0,0.0,15,0.00,,,0.00,WeatherTracker,2013-10-08 18:51:00,
2013-10-08 11:56:00,67.3,18.1,29.56,ESE,103,0.0,0.0,15,0.00,,,0.00,WeatherTracker,2013-10-08 18:56:00,
2013-10-08 12:01:00,67.5,18.2,29.56,NNE,29,0.0,0.0,15,0.00,,,0.00,WeatherTracker,2013-10-08 19:01:00,
2013-10-08 12:06:00,67.8,18.5,29.56,NNE,30,0.0,0.0,15,0.00,,,0.00,WeatherTracker,2013-10-08 19:06:00,
2013-10-08 12:11:00,68.0,18.6,29.56,NE,46,0.0,0.0,15,0.00,,,0.00,WeatherTracker,2013-10-08 19:11:00,
2013-10-08 12:16:00,68.0,18.6,29.56,ENE,74,0.0,3.0,15,0.00,,,0.00,WeatherTracker,2013-10-08 19:16:00,
2013-10-08 12:21:00,68.0,18.6,29.56,ENE,78,0.0,3.0,15,0.00,,,0.00,WeatherTracker,2013-10-08 19:21:00,
2013-10-08 12:26:00,68.2,18.8,29.56,ENE,77,0.0,0.0,15,0.00,,,0.00,WeatherTracker,2013-10-08 19:26:00,
2013-10-08 12:31:00,68.0,18.6,29.56,SSE,167,2.0,3.0,15,0.00,,,0.00,WeatherTracker,2013-10-08 19:31:00,
2013-10-08 12:36:00,68.0,18.6,29.56,SSE,167,0.0,0.0,15,0.00,,,0.00,WeatherTracker,2013-10-08 19:36:00,
2013-10-08 12:41:00,68.0,18.6,29.56,SSE,167,0.0,2.0,15,0.00,,,0.00,WeatherTracker,2013-10-08 19:41:00,
2013-10-08 12:46:00,68.2,18.8,29.56,SE,127,0.0,0.0,15,0.00,,,0.00,WeatherTracker,2013-10-08 19:46:00,
2013-10-08 12:51:00,68.4,18.9,29.56,NE,39,0.0,0.0,15,0.00,,,0.00,WeatherTracker,2013-10-08 19:51:00,
2013-10-08 12:56:00,68.5,19.1,29.56,NE,55,0.0,0.0,15,0.00,,,0.00,WeatherTracker,2013-10-08 19:56:00,
2013-10-08 13:01:00,68.9,19.4,29.56,NE,52,0.0,0.0,15,0.00,,,0.00,WeatherTracker,2013-10-08 20:01:00,
2013-10-08 13:06:00,69.6,19.9,29.56,NE,45,0.0,0.0,15,0.00,,,0.00,WeatherTracker,2013-10-08 20:06:00,
2013-10-08 13:11:00,70.2,23.3,29.56,East,97,0.0,2.0,17,0.00,,,0.00,WeatherTracker,2013-10-08 20:11:00,
2013-10-08 13:16:00,70.0,23.2,29.56,ESE,104,0.0,0.0,17,0.00,,,0.00,WeatherTracker,2013-10-08 20:16:00,
2013-10-08 13:21:00,72.7,23.9,29.56,South,178,0.0,4.0,16,0.00,,,0.00,WeatherTracker,2013-10-08 20:21:00,
2013-10-08 13:26:00,77.4,26.1,29.56,South,178,0.0,0.0,15,0.00,,,0.00,WeatherTracker,2013-10-08 20:26:00,
2013-10-08 13:31:00,79.3,27.7,29.56,South,178,0.0,0.0,15,0.00,,,0.00,WeatherTracker,2013-10-08 20:31:00,
2013-10-08 13:36:00,80.4,28.5,29.56,South,178,0.0,0.0,15,0.00,,,0.00,WeatherTracker,2013-10-08 20:36:00,
2013-10-08 13:41:00,77.4,26.1,29.56,NW,317,0.0,0.0,15,0.00,,,0.00,WeatherTracker,2013-10-08 20:41:00,
2013-10-08 13:46:00,75.0,25.8,29.56,NW,317,0.0,0.0,16,0.00,,,0.00,WeatherTracker,2013-10-08 20:46:00,
2013-10-08 13:51:00,73.4,24.5,29.56,NW,317,0.0,0.0,16,0.00,,,0.00,WeatherTracker,2013-10-08 20:51:00,
2013-10-08 13:56:00,73.0,24.2,29.56,ENE,69,0.0,0.0,16,0.00,,,0.00,WeatherTracker,2013-10-08 20:56:00,
2013-10-08 14:01:00,72.1,23.5,29.56,East,91,0.0,4.0,16,0.00,,,0.00,WeatherTracker,2013-10-08 21:01:00,
2013-10-08 14:06:00,71.4,24.3,29.56,East,91,0.0,0.0,17,0.00,,,0.00,WeatherTracker,2013-10-08 21:06:00,
2013-10-08 14:11:00,71.4,24.3,29.56,SE,138,2.0,4.0,17,0.00,,,0.00,WeatherTracker,2013-10-08 21:11:00,
2013-10-08 14:16:00,71.4,24.3,29.56,East,81,0.0,3.0,17,0.00,,,0.00,WeatherTracker,2013-10-08 21:16:00,
2013-10-08 14:21:00,71.6,23.0,29.56,SE,137,0.0,0.0,16,0.00,,,0.00,WeatherTracker,2013-10-08 21:21:00,
2013-10-08 14:26:00,72.3,23.6,29.56,SE,137,0.0,0.0,16,0.00,,,0.00,WeatherTracker,2013-10-08 21:26:00,
2013-10-08 14:31:00,72.0,23.3,29.56,SE,137,0.0,0.0,16,0.00,,,0.00,WeatherTracker,2013-10-08 21:31:00,
2013-10-08 14:36:00,71.8,23.2,29.56,SE,137,0.0,0.0,16,0.00,,,0.00,WeatherTracker,2013-10-08 21:36:00,
2013-10-08 14:41:00,71.6,23.0,29.56,SE,137,0.0,0.0,16,0.00,,,0.00,WeatherTracker,2013-10-08 21:41:00,
2013-10-08 14:46:00,71.2,24.2,29.56,NW,326,0.0,0.0,17,0.00,,,0.00,WeatherTracker,2013-10-08 21:46:00,
2013-10-08 14:51:00,71.1,24.0,29.56,NW,326,0.0,0.0,17,0.00,,,0.00,WeatherTracker,2013-10-08 21:51:00,
2013-10-08 14:56:00,70.9,23.9,29.56,NW,326,0.0,0.0,17,0.00,,,0.00,WeatherTracker,2013-10-08 21:56:00,
2013-10-08 15:01:00,70.9,23.9,29.56,NW,326,0.0,0.0,17,0.00,,,0.00,WeatherTracker,2013-10-08 22:01:00,
2013-10-08 15:06:00,70.9,23.9,29.56,NW,326,0.0,0.0,17,0.00,,,0.00,WeatherTracker,2013-10-08 22:06:00,
2013-10-08 15:11:00,70.9,23.9,29.56,NW,326,0.0,0.0,17,0.00,,,0.00,WeatherTracker,2013-10-08 22:11:00,
2013-10-08 15:16:00,70.3,23.5,29.56,WSW,254,0.0,2.0,17,0.00,,,0.00,WeatherTracker,2013-10-08 22:16:00,
2013-10-08 15:21:00,70.2,23.3,29.56,WSW,247,3.0,3.0,17,0.00,,,0.00,WeatherTracker,2013-10-08 22:21:00,
2013-10-08 15:26:00,70.3,23.5,29.56,NW,304,0.0,0.0,17,0.00,,,0.00,WeatherTracker,2013-10-08 22:26:00,
2013-10-08 15:31:00,70.5,23.6,29.56,North,0,0.0,0.0,17,0.00,,,0.00,WeatherTracker,2013-10-08 22:31:00,
2013-10-08 15:36:00,70.5,23.6,29.56,North,0,0.0,0.0,17,0.00,,,0.00,WeatherTracker,2013-10-08 22:36:00,
2013-10-08 15:41:00,70.7,23.8,29.56,North,0,0.0,2.0,17,0.00,,,0.00,WeatherTracker,2013-10-08 22:41:00,
2013-10-08 15:46:00,70.3,23.5,29.56,NW,311,4.0,4.0,17,0.00,,,0.00,WeatherTracker,2013-10-08 22:46:00,
2013-10-08 15:51:00,70.3,23.5,29.56,WNW,301,3.0,3.0,17,0.00,,,0.00,WeatherTracker,2013-10-08 22:51:00,
2013-10-08 15:56:00,70.5,23.6,29.56,NW,306,0.0,0.0,17,0.00,,,0.00,WeatherTracker,2013-10-08 22:56:00,
2013-10-08 16:01:00,70.3,23.5,29.56,NW,306,0.0,0.0,17,0.00,,,0.00,WeatherTracker,2013-10-08 23:01:00,
2013-10-08 16:06:00,70.3,23.5,29.56,NW,306,0.0,0.0,17,0.00,,,0.00,WeatherTracker,2013-10-08 23:06:00,
2013-10-08 16:11:00,69.8,23.0,29.56,NNW,337,0.0,3.0,17,0.00,,,0.00,WeatherTracker,2013-10-08 23:11:00,
2013-10-08 16:16:00,69.4,22.7,29.56,SSE,154,0.0,0.0,17,0.00,,,0.00,WeatherTracker,2013-10-08 23:16:00,
2013-10-08 16:21:00,69.3,22.6,29.56,SSW,206,0.0,0.0,17,0.00,,,0.00,WeatherTracker,2013-10-08 23:21:00,
2013-10-08 16:26:00,69.1,22.4,29.56,ESE,116,3.0,0.0,17,0.00,,,0.00,WeatherTracker,2013-10-08 23:26:00,
2013-10-08 16:31:00,68.9,22.3,29.56,East,83,3.0,3.0,17,0.00,,,0.00,WeatherTracker,2013-10-08 23:31:00,
2013-10-08 16:36:00,68.7,22.1,29.56,NE,42,0.0,0.0,17,0.00,,,0.00,WeatherTracker,2013-10-08 23:36:00,
2013-10-08 16:41:00,68.5,22.0,29.56,SE,140,0.0,2.0,17,0.00,,,0.00,WeatherTracker,2013-10-08 23:41:00,
2013-10-08 16:46:00,68.4,21.9,29.56,East,99,0.0,0.0,17,0.00,,,0.00,WeatherTracker,2013-10-08 23:46:00,
2013-10-08 16:51:00,68.2,21.7,29.56,SSE,153,0.0,0.0,17,0.00,,,0.00,WeatherTracker,2013-10-08 23:51:00,
2013-10-08 16:56:00,67.8,21.4,29.56,SSE,153,0.0,0.0,17,0.00,,,0.00,WeatherTracker,2013-10-08 23:56:00,
2013-10-08 17:01:00,67.5,21.1,29.56,East,92,0.0,0.0,17,0.00,,,0.00,WeatherTracker,2013-10-09 00:01:00,
2013-10-08 17:06:00,67.5,21.1,29.56,WSW,238,0.0,0.0,17,0.00,,,0.00,WeatherTracker,2013-10-09 00:06:00,
2013-10-08 17:11:00,67.3,21.0,29.56,WSW,238,0.0,3.0,17,0.00,,,0.00,WeatherTracker,2013-10-09 00:11:00,
2013-10-08 17:16:00,66.9,20.7,29.56,WSW,238,0.0,0.0,17,0.00,,,0.00,WeatherTracker,2013-10-09 00:16:00,
2013-10-08 17:21:00,66.7,20.5,29.56,WSW,238,0.0,0.0,17,0.00,,,0.00,WeatherTracker,2013-10-09 00:21:00,
2013-10-08 17:26:00,66.6,20.4,29.56,WSW,238,0.0,0.0,17,0.00,,,0.00,WeatherTracker,2013-10-09 00:26:00,
2013-10-08 17:31:00,66.2,20.1,29.56,WSW,238,0.0,0.0,17,0.00,,,0.00,WeatherTracker,2013-10-09 00:31:00,
2013-10-08 17:36:00,66.0,21.3,29.56,WSW,238,0.0,2.0,18,0.00,,,0.00,WeatherTracker,2013-10-09 00:36:00,
2013-10-08 17:41:00,65.8,21.2,29.56,WSW,238,0.0,0.0,18,0.00,,,0.00,WeatherTracker,2013-10-09 00:41:00,
2013-10-08 17:46:00,65.7,16.8,29.56,WSW,238,0.0,2.0,15,0.00,,,0.00,WeatherTracker,2013-10-09 00:46:00,
2013-10-08 17:51:00,65.7,16.8,29.56,WSW,238,2.0,3.0,15,0.00,,,0.00,WeatherTracker,2013-10-09 00:51:00,
2013-10-08 17:56:00,65.7,16.8,29.56,WSW,238,0.0,3.0,15,0.00,,,0.00,WeatherTracker,2013-10-09 00:56:00,
2013-10-08 18:01:00,65.5,16.6,29.56,West,273,0.0,0.0,15,0.00,,,0.00,WeatherTracker,2013-10-09 01:01:00,
2013-10-08 18:06:00,65.5,16.6,29.56,West,273,0.0,0.0,15,0.00,,,0.00,WeatherTracker,2013-10-09 01:06:00,
2013-10-08 18:11:00,64.9,16.2,29.56,West,273,0.0,0.0,15,0.00,,,0.00,WeatherTracker,2013-10-09 01:11:00,
2013-10-08 18:16:00,64.6,15.9,29.56,West,273,0.0,0.0,15,0.00,,,0.00,WeatherTracker,2013-10-09 01:16:00,
2013-10-08 18:21:00,64.4,15.8,29.56,West,273,0.0,0.0,15,0.00,,,0.00,WeatherTracker,2013-10-09 01:21:00,
2013-10-08 18:26:00,64.0,17.0,29.56,West,273,0.0,0.0,16,0.00,,,0.00,WeatherTracker,2013-10-09 01:26:00,
2013-10-08 18:31:00,63.7,16.7,29.56,West,273,2.0,3.0,16,0.00,,,0.00,WeatherTracker,2013-10-09 01:31:00,
2013-10-08 18:36:00,63.3,16.4,29.56,West,273,0.0,0.0,16,0.00,,,0.00,WeatherTracker,2013-10-09 01:36:00,
2013-10-08 18:41:00,63.1,16.2,29.56,West,273,0.0,0.0,16,0.00,,,0.00,WeatherTracker,2013-10-09 01:41:00,
2013-10-08 18:46:00,62.8,15.9,29.56,West,273,0.0,0.0,16,0.00,,,0.00,WeatherTracker,2013-10-09 01:46:00,
2013-10-08 18:51:00,62.6,15.8,29.56,West,273,0.0,0.0,16,0.00,,,0.00,WeatherTracker,2013-10-09 01:51:00,
2013-10-08 18:56:00,62.4,15.6,29.56,West,273,0.0,0.0,16,0.00,,,0.00,WeatherTracker,2013-10-09 01:56:00,
2013-10-08 19:01:00,62.2,15.5,29.56,West,273,0.0,0.0,16,0.00,,,0.00,WeatherTracker,2013-10-09 02:01:00,
2013-10-08 19:06:00,62.2,15.5,29.56,West,273,0.0,0.0,16,0.00,,,0.00,WeatherTracker,2013-10-09 02:06:00,
2013-10-08 19:11:00,61.9,15.2,29.56,West,273,0.0,0.0,16,0.00,,,0.00,WeatherTracker,2013-10-09 02:11:00,
2013-10-08 19:16:00,61.7,15.1,29.56,West,273,0.0,0.0,16,0.00,,,0.00,WeatherTracker,2013-10-09 02:16:00,
2013-10-08 19:21:00,61.7,15.1,29.56,West,273,0.0,0.0,16,0.00,,,0.00,WeatherTracker,2013-10-09 02:21:00,
2013-10-08 19:26:00,61.5,14.9,29.56,West,273,0.0,0.0,16,0.00,,,0.00,WeatherTracker,2013-10-09 02:26:00,
2013-10-08 19:31:00,61.3,14.8,29.56,West,273,0.0,0.0,16,0.00,,,0.00,WeatherTracker,2013-10-09 02:31:00,
2013-10-08 19:36:00,61.3,14.8,29.56,West,273,0.0,0.0,16,0.00,,,0.00,WeatherTracker,2013-10-09 02:36:00,
2013-10-08 19:41:00,61.3,14.8,29.56,West,273,0.0,0.0,16,0.00,,,0.00,WeatherTracker,2013-10-09 02:41:00,
2013-10-08 19:46:00,61.0,14.5,29.56,West,273,0.0,0.0,16,0.00,,,0.00,WeatherTracker,2013-10-09 02:46:00,
2013-10-08 19:51:00,60.8,14.3,29.56,West,273,0.0,0.0,16,0.00,,,0.00,WeatherTracker,2013-10-09 02:51:00,
2013-10-08 19:56:00,60.4,15.4,29.56,West,273,0.0,0.0,17,0.00,,,0.00,WeatherTracker,2013-10-09 02:56:00,
2013-10-08 20:01:00,60.1,15.1,29.56,West,273,0.0,0.0,17,0.00,,,0.00,WeatherTracker,2013-10-09 03:01:00,
2013-10-08 20:06:00,60.1,15.1,29.56,West,273,0.0,0.0,17,0.00,,,0.00,WeatherTracker,2013-10-09 03:06:00,
2013-10-08 20:11:00,60.1,15.1,29.56,West,273,0.0,0.0,17,0.00,,,0.00,WeatherTracker,2013-10-09 03:11:00,
2013-10-08 20:16:00,59.7,14.8,29.56,West,273,0.0,0.0,17,0.00,,,0.00,WeatherTracker,2013-10-09 03:16:00,
2013-10-08 20:21:00,59.7,14.8,29.56,West,273,0.0,0.0,17,0.00,,,0.00,WeatherTracker,2013-10-09 03:21:00,
2013-10-08 20:26:00,59.7,14.8,29.56,West,273,0.0,0.0,17,0.00,,,0.00,WeatherTracker,2013-10-09 03:26:00,
2013-10-08 20:31:00,59.7,14.8,29.56,West,273,0.0,0.0,17,0.00,,,0.00,WeatherTracker,2013-10-09 03:31:00,
2013-10-08 20:36:00,59.7,14.8,29.56,West,273,0.0,0.0,17,0.00,,,0.00,WeatherTracker,2013-10-09 03:36:00,
2013-10-08 20:41:00,59.7,14.8,29.56,West,273,0.0,0.0,17,0.00,,,0.00,WeatherTracker,2013-10-09 03:41:00,
2013-10-08 20:46:00,59.7,14.8,29.56,West,273,0.0,0.0,17,0.00,,,0.00,WeatherTracker,2013-10-09 03:46:00,
2013-10-08 20:51:00,59.5,14.7,29.56,West,273,0.0,0.0,17,0.00,,,0.00,WeatherTracker,2013-10-09 03:51:00,
2013-10-08 20:56:00,59.4,14.6,29.56,West,273,0.0,0.0,17,0.00,,,0.00,WeatherTracker,2013-10-09 03:56:00,
2013-10-08 21:01:00,59.4,14.6,29.56,West,273,0.0,0.0,17,0.00,,,0.00,WeatherTracker,2013-10-09 04:01:00,
2013-10-08 21:02:00,59.2,14.4,29.56,West,273,0.0,0.0,17,0.00,,,0.00,WeatherTracker,2013-10-09 04:02:00,
2013-10-08 21:07:00,59.2,14.4,29.56,West,273,0.0,0.0,17,0.00,,,0.00,WeatherTracker,2013-10-09 04:07:00,
2013-10-08 21:12:00,59.2,14.4,29.56,West,273,2.0,3.0,17,0.00,,,0.00,WeatherTracker,2013-10-09 04:12:00,
2013-10-08 21:17:00,59.2,14.4,29.56,West,273,0.0,0.0,17,0.00,,,0.00,WeatherTracker,2013-10-09 04:17:00,
2013-10-08 21:22:00,59.0,14.3,29.56,West,273,0.0,0.0,17,0.00,,,0.00,WeatherTracker,2013-10-09 04:22:00,
2013-10-08 21:27:00,59.2,17.0,29.56,West,273,0.0,0.0,19,0.00,,,0.00,WeatherTracker,2013-10-09 04:27:00,
2013-10-08 21:32:00,59.4,17.1,29.56,West,273,0.0,0.0,19,0.00,,,0.00,WeatherTracker,2013-10-09 04:32:00,
2013-10-08 21:37:00,59.2,17.0,29.56,West,273,0.0,0.0,19,0.00,,,0.00,WeatherTracker,2013-10-09 04:37:00,
2013-10-08 21:42:00,59.2,17.0,29.56,West,273,0.0,0.0,19,0.00,,,0.00,WeatherTracker,2013-10-09 04:42:00,
2013-10-08 21:47:00,58.8,16.7,29.56,West,273,0.0,0.0,19,0.00,,,0.00,WeatherTracker,2013-10-09 04:47:00,
2013-10-08 21:52:00,58.5,16.4,29.56,West,273,0.0,0.0,19,0.00,,,0.00,WeatherTracker,2013-10-09 04:52:00,
2013-10-08 21:57:00,58.1,16.1,29.56,West,273,0.0,0.0,19,0.00,,,0.00,WeatherTracker,2013-10-09 04:57:00,
2013-10-08 22:02:00,57.9,15.9,29.56,West,273,0.0,0.0,19,0.00,,,0.00,WeatherTracker,2013-10-09 05:02:00,
2013-10-08 22:07:00,57.9,15.9,29.56,West,273,0.0,2.0,19,0.00,,,0.00,WeatherTracker,2013-10-09 05:07:00,
2013-10-08 22:12:00,58.1,16.1,29.56,West,273,0.0,0.0,19,0.00,,,0.00,WeatherTracker,2013-10-09 05:12:00,
2013-10-08 22:17:00,57.9,15.9,29.56,West,273,0.0,0.0,19,0.00,,,0.00,WeatherTracker,2013-10-09 05:17:00,
2013-10-08 22:22:00,57.9,15.9,29.56,West,273,0.0,0.0,19,0.00,,,0.00,WeatherTracker,2013-10-09 05:22:00,
2013-10-08 22:27:00,57.9,15.9,29.56,West,273,0.0,0.0,19,0.00,,,0.00,WeatherTracker,2013-10-09 05:27:00,
2013-10-08 22:32:00,57.9,15.9,29.56,West,273,0.0,0.0,19,0.00,,,0.00,WeatherTracker,2013-10-09 05:32:00,
2013-10-08 22:37:00,57.9,15.9,29.56,West,273,0.0,0.0,19,0.00,,,0.00,WeatherTracker,2013-10-09 05:37:00,
2013-10-08 22:42:00,57.7,15.8,29.56,West,273,0.0,0.0,19,0.00,,,0.00,WeatherTracker,2013-10-09 05:42:00,
2013-10-08 22:47:00,57.6,15.6,29.56,West,273,0.0,0.0,19,0.00,,,0.00,WeatherTracker,2013-10-09 05:47:00,
2013-10-08 22:52:00,57.4,15.5,29.56,West,273,0.0,0.0,19,0.00,,,0.00,WeatherTracker,2013-10-09 05:52:00,
2013-10-08 22:57:00,57.0,18.6,29.56,West,273,0.0,0.0,22,0.00,,,0.00,WeatherTracker,2013-10-09 05:57:00,
2013-10-08 23:02:00,57.0,18.6,29.56,WSW,243,3.0,3.0,22,0.00,,,0.00,WeatherTracker,2013-10-09 06:02:00,
2013-10-08 23:07:00,57.7,15.8,29.56,WSW,243,2.0,4.0,19,0.00,,,0.00,WeatherTracker,2013-10-09 06:07:00,
2013-10-08 23:12:00,58.3,16.2,29.56,WSW,243,0.0,0.0,19,0.00,,,0.00,WeatherTracker,2013-10-09 06:12:00,
2013-10-08 23:17:00,58.5,16.4,29.56,WSW,243,0.0,0.0,19,0.00,,,0.00,WeatherTracker,2013-10-09 06:17:00,
2013-10-08 23:22:00,58.3,16.2,29.56,WSW,243,0.0,0.0,19,0.00,,,0.00,WeatherTracker,2013-10-09 06:22:00,
2013-10-08 23:27:00,57.7,19.2,29.56,WSW,243,0.0,0.0,22,0.00,,,0.00,WeatherTracker,2013-10-09 06:27:00,
2013-10-08 23:32:00,57.0,18.6,29.56,WSW,243,0.0,0.0,22,0.00,,,0.00,WeatherTracker,2013-10-09 06:32:00,
2013-10-08 23:37:00,56.7,18.3,29.56,WSW,243,0.0,0.0,22,0.00,,,0.00,WeatherTracker,2013-10-09 06:37:00,
2013-10-08 23:42:00,56.3,18.0,29.56,WSW,243,0.0,0.0,22,0.00,,,0.00,WeatherTracker,2013-10-09 06:42:00,
2013-10-08 23:47:00,56.1,20.8,29.56,WSW,243,0.0,0.0,25,0.00,,,0.00,WeatherTracker,2013-10-09 06:47:00,
2013-10-08 23:52:00,55.9,20.6,29.56,WSW,243,0.0,0.0,25,0.00,,,0.00,WeatherTracker,2013-10-09 06:52:00,
2013-10-08 23:57:00,55.6,20.3,29.56,WSW,243,0.0,0.0,25,0.00,,,0.00,WeatherTracker,2013-10-09 06:57:00,